Regional Weather Roundup
Issued by NWS

Home | Current Version | Previous Version | Text Only | Print | Product List | Glossary On
Versions: 1 2 3 4 5 6 7 8 9 10 11 12 13 14 15 16 17 18 19 20 21 22 23 24 25 26 27 28 29 30 31 32 33 34 35 36 37 38 39 40 41 42 43 44 45 46 47 48 49 50
000
ASUS43 KBIS 240410
RWRND

NORTH DAKOTA REGIONAL WEATHER ROUNDUP
NATIONAL WEATHER SERVICE BISMARCK ND
1000 PM CST TUE JAN 23 2018

NOTE: "FAIR" INDICATES FEW OR NO CLOUDS BELOW 12,000 FEET WITH NO
SIGNIFICANT WEATHER AND/OR OBSTRUCTIONS TO VISIBILITY.


NDZ001>003-009>011-017-240500-
NORTHWEST NORTH DAKOTA

CITY           SKY/WX    TMP DP  RH WIND       PRES   REMARKS
WILLISTON      CLEAR     13  11  92 S3        30.09S
MINOT          CLEAR     17  13  84 S3        30.08F
MINOT AFB      CLEAR     12   9  88 S7        30.07F WCI   1
$$

NDZ018>021-031>035-040>046-240500-
SOUTHWEST NORTH DAKOTA

CITY           SKY/WX    TMP DP  RH WIND       PRES   REMARKS
BISMARCK       CLEAR     14  12  92 E3        30.15S
DICKINSON      CLEAR     21  17  84 W12       30.07F WCI   9
GARRISON         N/A      8   5  87 CALM      30.11S
HETTINGER ARPT CLEAR     17  14  88 W6        30.13F WCI   9
$$

NDZ004>008-012>016-024-026-027-054-240500-
NORTHEAST NORTH DAKOTA

CITY           SKY/WX    TMP DP  RH WIND       PRES   REMARKS
GRAND FORKS    CLOUDY    24  19  81 W5        30.15R WCI  18
GRND FRKS AFB  CLOUDY    24  18  78 NW8       30.14S WCI  15
DEVILS LAKE    CLOUDY    22  20  92 W8        30.13S WCI  12
$$

NDZ022-023-025-028>030-036>039-047>053-240500-
SOUTHEAST NORTH DAKOTA

CITY           SKY/WX    TMP DP  RH WIND       PRES   REMARKS
FARGO          CLOUDY    23  19  85 NW9       30.17R WCI  13
JAMESTOWN      CLOUDY    20  18  92 NW13      30.15S WCI   7
$$





USA.gov is the U.S. government's official web portal to all federal, state and local government web resources and services.